Погода в Петруни

Погода в Петруни : погода сейчас, прогноз погоды и архив. Всё, что Вы хотите узнать о погоде в Петруни!

Поиск расширенной информации на нашем сайте:

Другие новости

Новости СМИ2

Главная страница сайта

Новости сайта

03.07.2017

Напоминаем, что на нашем специализированном сайте Метеоцентр.Азия вы можете получить высокодетализированные автоматические прогнозы погоды по пунктам России, СНГ и мира в авиационном формате (включающие направление и скорость ветра, видимость, явления погоды, количество и форму облачности, нижнюю и верхнюю границу облачности).


Погода в Петруни - сегодня

Время (UTC), дата Ветер
(°,м/с) 
Видим.   Явления Облачность Т
(°С)
Тd
(°С)
f(%) Тe
(°С)
Pmin
(гПа)
dP
(гПа)
Po
(мм)
O2
(г/м3)
Тmin Tmax R s Состояние
почвы
21 21.02.18 030 (СВ) 40000 м    ясно 
-23.5 -26 80 -30  1023.5  0.3  761  337           
00 22.02.18 050 (СВ) 40000 м    ясно 
-19.5 -22.1 80 -24  1023.6  0.2  761  332           
03 22.02.18 030 (СВ) 45000 м    4/0 средняя, верхняя 
[Ac As|Ci fib]
-22.8 -25.3 80 -29  1023.7  761  336  -25.3      55  очень
неравномерный
сухой снег
(сугробы, заносы) 
06 22.02.18 030 (СВ) 40000 м    8/0 средняя, верхняя 
[Ac As|Ci sp]
-23.1 -25.5 81 -29  1024  0.5  762  337           
09 22.02.18 030 (СВ) 35000 м    9/0 средняя, верхняя 
[Ac As|Ci sp]
-19.5 -22.8 75 -26  1024.1  0.3  762  332           
12 22.02.18 030 (СВ) 30000 м    9/0 средняя, верхняя 
[Ac lent|Ci sp]
-20.7 -24 75 -26  1024.8  0.6  762  334           
18 22.02.18 020 (С) 35000 м    4/0 средняя, верхняя 
[Ac As|Ci fib]
-26.1 -28.5 80 -33  1025.9  0.5  763  342           
21 22.02.18 020 (С) 35000 м    3/0 средняя, верхняя 
[Ac As|Ci fib]
-27.9 -30.3 80 -33  1026.3  0.3  763  344           
00 23.02.18 020 (С) 30000 м    3/0 средняя 
[Ac As]
-29.6 -31.9 80 -35  1026.4  763  347           
03 23.02.18 020 (С) 35000 м    3/0 средняя 
[Ac lent]
-31.6 -33.8 81 -37  1026.7  0.2  763  350  -31.8      55  очень
неравномерный
сухой снег
(сугробы, заносы) 
06 23.02.18 010 (С) 40000 м    6/0 средняя, верхняя 
[Ac lent|Ci sp]
-30.2 -33.2 75 -34  1026.7  0.1  763  348  -32         
09 23.02.18 030 (СВ) 40000 м    4/0 средняя, верхняя 
[Ac As|Ci sp]
-24.2 -28.1 70 -29  1026.5  763  339           
12 23.02.18 030 (СВ) 40000 м    3/0 верхняя 
[Ci fib]
-24.8 -28.7 70 -30  1026.3  -0.2  763  340           
15 23.02.18 020 (С) 40000 м    ясно 
-27.7 -30.1 80 -31  1025.7  -0.7  763  344    -21.9       
18 23.02.18 010 (С) 40000 м    9/0 средняя 
[Ac As]
-30.5 -32.7 81 -34  1025.4  -0.3  762  348           
21 23.02.18 020 (С) 35000 м    10/10 1260 м 
[Sc]
-21.8 -24.3 80 -25  1024.6  -0.7  762  335           
00 24.02.18 010 (С) 35000 м    8/0 средняя 
[Ac As]
-19.2 -21.8 80 -25  1024.5  -0.1  762  332           
03 24.02.18 010 (С) 40000 м    ясно 
-25 -27.4 80 -31  1025.1  0.4  762  340  -30.5      55  очень
неравномерный
сухой снег
(сугробы, заносы) 
06 24.02.18 020 (С) 40000 м    ясно 
-27 -30.1 75 -32  1025.9  0.8  763  343           
09 24.02.18 030 (СВ) 45000 м    1/0 верхняя 
[Ci fib]
-24.3 -28.2 70 -29  1026.4  0.5  763  339           
12 24.02.18 020 (С) 40000 м    3/0 верхняя 
[Ci sp]
-25.3 -29.1 71 -30  1026.9  0.5  764  341           
15 24.02.18 320 (СЗ) 40000 м    ясно 
-28.5 -30.5 83 -32  1026.7  -0.3  763  345    -24       
18 24.02.18 020 (С) 35000 м    ясно 
-31.8 -34.7 75 -36  1026  -0.8  763  350           
21 24.02.18 030 (СВ) 30000 м    ясно 
-35.1 -38 75 -39  1027  0.8  763  355           
00 25.02.18 030 (СВ) 28000 м    ясно 
-37.3 -40.1 75 -44  1028.6  1.5  765  359           
Время (UTC), дата Ветер
(°,м/с) 
Видим.   Явления Облачность Т
(°С)
Тd
(°С)
f(%) Тe
(°С)
Pmin
(гПа)
dP
(гПа)
Po
(мм)
O2
(г/м3)
Тmin Tmax R s Состояние
почвы

Для получения пояснительной информации подведите курсор к названию столбца.

ПОГОДА в Петруни - архив

Всё, что Вы хотите узнать о погоде в Петруни - удобно и подробно!

Выберите нужную дату (начиная с 1 января 2015* года) и нажмите кнопку "Найти".
Будут отображены архивные сводки погоды по пункту Петрунь, начиная с указанной даты.


Отображать данные в формате CSV (для использования в таблицах Excel)


Внимание! Наш архив погоды предназначен исключительно для личного некоммерческого использования в познавательных целях. Если Вам необходимы официальные справки о состоянии погоды (для производственных, юридических, коммерческих и т.п. целей), обращайтесь в органы Росгидромета.

*Примечание: данная дата относится к архиву по метеостанциям СССР (Россия, СНГ, Балтия).
Архив по метеостанциям Зарубежной Европы и Азии (кроме Китая) хранится 10 дней, по другим регионам земного шара (Китай, Африка, Америка, Австралия, Океания) - 1 день.

Петрунь - район местоположения метеостанции


Название, широта, долгота, высота метеостанции:
Петрунь 66.5°ш. 60.8°д. 58 м над ур. моря [Российская Федерация]

Дополнительная информация

В oтличие oт бoльшинства пoгoдных сайтoв мы публикуем пoдрoбную метеoинфoрмацию в детальнoм прoфессиoнальнoм фoрмате.

Характеристики температуры и влажнoсти вoздуха измеряются на высoте 2 м в тени вдали oт зданий и деревьев.
Скoрoсть ветра измеряется на высoте 10 м (на урoвне рoста челoвека скoрoсть ветра ниже в 1.5-2 раза). Если метеoстанция нахoдится в гoрoде или в лесу, тo скoрoсть ветра занижена на 2-4 м/с пo сравнению с oткрытым местoм. Скoрoсть ветра над акватoриями крупных рек и oзёр, а также на вершинах хoлмoв на 2-5 м/с выше, чем в oбычных услoвиях.
Атмoсфернoе давление в разных тoчках местнoсти мoжет значительнo oтличаться oт давления на метеoстанции, в зависимoсти oт услoвий рельефа (при пoдъёме на 10 м давление пoнижается примернo на 1 мм рт.ст.).